| time (UTC) | temp C | wind direction | speed KPH | gust KPH | rain 1hr cm | rain 24hr cm | rain mn cm | humidity % | barometer mb |
| 20260902065830 | -17 | 0.0 | 0.0 | 0.00 | 0.00 | 0.00 | 33 | 752.0 | |
| 20260902064329 | -17 | 0.0 | 0.0 | 0.00 | 0.00 | 0.00 | 44 | 752.1 | |
| 20260902062829 | -17 | 0.0 | 0.0 | 0.00 | 0.00 | 0.00 | 49 | 752.2 | |
| 20260902061328 | -17 | 0.0 | 0.0 | 0.00 | 0.00 | 0.00 | 53 | 752.4 | |
| 20260902055827 | -17 | 0.0 | 0.0 | 0.00 | 0.00 | 0.00 | 49 | 752.4 | |
| 20260902054326 | -17 | 0.0 | 0.0 | 0.00 | 0.00 | 0.00 | 45 | 752.5 | |
| 20260902051324 | -17 | 0.0 | 0.0 | 0.00 | 0.00 | 0.00 | 50 | 752.8 | |
| 20260902045822 | -17 | 0.0 | 0.0 | 0.00 | 0.00 | 0.00 | 48 | 752.9 | |
| 20260902041319 | -17 | 0.0 | 0.0 | 0.00 | 0.00 | 0.00 | 31 | 753.1 | |
| 20260902035818 | -17 | 0.0 | 0.0 | 0.00 | 0.00 | 0.00 | 29 | 753.5 | |
| 20260902034317 | -17 | 0.0 | 0.0 | 0.00 | 0.00 | 0.00 | 25 | 753.6 | |
| 20260902032817 | -17 | 0.0 | 0.0 | 0.00 | 0.00 | 0.00 | 23 | 753.8 | |
| 20260902031315 | -17 | 0.0 | 0.0 | 0.00 | 0.00 | 0.00 | 20 | 753.9 | |
| 20260902025814 | -17 | 0.0 | 0.0 | 0.00 | 0.00 | 0.00 | 21 | 754.0 | |
| 20260902024309 | -17 | 0.0 | 0.0 | 0.00 | 0.00 | 0.00 | 19 | 754.2 | |
| 20260902022809 | -17 | 0.0 | 0.0 | 0.00 | 0.00 | 0.00 | 14 | 754.2 | |
| 20260902021307 | -17 | 0.0 | 0.0 | 0.00 | 0.00 | 0.00 | 12 | 754.3 | |
| 20260902014305 | -17 | 0.0 | 0.0 | 0.00 | 0.00 | 0.00 | 12 | 754.4 | |
| 20260902012803 | -17 | 0.0 | 0.0 | 0.00 | 0.00 | 0.00 | 11 | 754.3 | |
| 20260902011302 | -17 | 0.0 | 0.0 | 0.00 | 0.00 | 0.00 | 10 | 754.3 | |
| 20260902005800 | -17 | 0.0 | 0.0 | 0.00 | 0.00 | 0.00 | 754.1 | ||
| 20260902004259 | -17 | 0.0 | 0.0 | 0.00 | 0.00 | 0.00 | 753.9 | ||
| 20260902002754 | -17 | 0.0 | 0.0 | 0.00 | 0.00 | 0.00 | 753.8 | ||
| 20260902001253 | -17 | 0.0 | 0.0 | 0.00 | 0.00 | 0.00 | 753.8 | ||
| 20260901235752 | -17 | 0.0 | 0.0 | 0.00 | 0.00 | 0.00 | 753.7 | ||
| 20260901234249 | -17 | 0.0 | 0.0 | 0.00 | 0.00 | 0.00 | 753.5 | ||
| 20260901225741 | -17 | 0.0 | 0.0 | 0.00 | 0.00 | 0.00 | 753.3 | ||
| 20260901224236 | -17 | 0.0 | 0.0 | 0.00 | 0.00 | 0.00 | 753.3 | ||
| 20260901221232 | -17 | 0.0 | 0.0 | 0.00 | 0.00 | 0.00 | 753.1 | ||
| 20260901212724 | -17 | 0.0 | 0.0 | 0.00 | 0.00 | 0.00 | 10 | 753.0 | |
| 20260901211220 | -17 | 0.0 | 0.0 | 0.00 | 0.00 | 0.00 | 10 | 753.0 | |
| 20260901205719 | -17 | 0.0 | 0.0 | 0.00 | 0.00 | 0.00 | 753.0 | ||
| 20260901204216 | -17 | 0.0 | 0.0 | 0.00 | 0.00 | 0.00 | 753.0 | ||
| 20260901202713 | -17 | 0.0 | 0.0 | 0.00 | 0.00 | 0.00 | 753.0 | ||
| 20260901201213 | -17 | 0.0 | 0.0 | 0.00 | 0.00 | 0.00 | 753.0 | ||
| 20260901195711 | -17 | 0.0 | 0.0 | 0.00 | 0.00 | 0.00 | 753.0 | ||
| 20260901191202 | -17 | 0.0 | 0.0 | 0.00 | 0.00 | 0.00 | 752.9 | ||
| 20260901184202 | -17 | 0.0 | 0.0 | 0.00 | 0.00 | 0.00 | 752.9 | ||
| 20260901182658 | -17 | 0.0 | 0.0 | 0.00 | 0.00 | 0.00 | 753.1 | ||
| 20260901181158 | -17 | 0.0 | 0.0 | 0.00 | 0.00 | 0.00 | 753.2 | ||
| 20260901174151 | -17 | 0.0 | 0.0 | 0.00 | 0.00 | 0.00 | 753.3 | ||
| 20260901172649 | -17 | 0.0 | 0.0 | 0.00 | 0.00 | 0.00 | 753.4 | ||
| 20260901165640 | -17 | 0.0 | 0.0 | 0.00 | 0.00 | 0.00 | 753.7 | ||
| 20260901164139 | -17 | 0.0 | 0.0 | 0.00 | 0.00 | 0.00 | 10 | 753.8 | |
| 20260901162634 | -17 | 0.0 | 0.0 | 0.00 | 0.00 | 0.00 | 753.8 | ||
| 20260901161131 | -17 | 0.0 | 0.0 | 0.00 | 0.00 | 0.00 | 753.9 | ||
| 20260901155628 | -17 | 0.0 | 0.0 | 0.00 | 0.00 | 0.00 | 754.0 | ||
| 20260901154127 | -17 | 0.0 | 0.0 | 0.00 | 0.00 | 0.00 | 12 | 754.2 | |
| 20260901151125 | -17 | 0.0 | 0.0 | 0.00 | 0.00 | 0.00 | 12 | 754.3 | |
| 20260901145625 | -17 | 0.0 | 0.0 | 0.00 | 0.00 | 0.00 | 11 | 754.2 | |
| 20260901144116 | -17 | 0.0 | 0.0 | 0.00 | 0.00 | 0.00 | 12 | 754.2 | |
| 20260901141112 | -17 | 0.0 | 0.0 | 0.00 | 0.00 | 0.00 | 12 | 754.0 | |
| 20260901134108 | -17 | 0.0 | 0.0 | 0.00 | 0.00 | 0.00 | 13 | 753.9 | |
| 20260901132618 | -17 | 0.0 | 0.0 | 0.00 | 0.00 | 0.00 | 13 | 753.8 | |
| 20260901131103 | -17 | 0.0 | 0.0 | 0.00 | 0.00 | 0.00 | 14 | 753.8 | |
| 20260901125600 | -17 | 0.0 | 0.0 | 0.00 | 0.00 | 0.00 | 14 | 753.7 | |
| 20260901124059 | -17 | 0.0 | 0.0 | 0.00 | 0.00 | 0.00 | 13 | 753.6 | |
| 20260901122554 | -17 | 0.0 | 0.0 | 0.00 | 0.00 | 0.00 | 11 | 753.5 | |
| 20260901121051 | -17 | 0.0 | 0.0 | 0.00 | 0.00 | 0.00 | 11 | 753.3 | |
| 20260901115549 | -17 | 0.0 | 0.0 | 0.00 | 0.00 | 0.00 | 11 | 753.3 | |
| 20260901114048 | -17 | 0.0 | 0.0 | 0.00 | 0.00 | 0.00 | 753.2 | ||
| 20260901112544 | -17 | 0.0 | 0.0 | 0.00 | 0.00 | 0.00 | 12 | 753.2 | |
| 20260901105537 | -17 | 0.0 | 0.0 | 0.00 | 0.00 | 0.00 | 17 | 752.9 | |
| 20260901102534 | -17 | 0.0 | 0.0 | 0.00 | 0.00 | 0.00 | 17 | 752.9 | |
| 20260901101032 | -17 | 0.0 | 0.0 | 0.00 | 0.00 | 0.00 | 17 | 752.9 | |
| 20260901095529 | -17 | 0.0 | 0.0 | 0.00 | 0.00 | 0.00 | 18 | 752.8 | |
| 20260901094025 | -17 | 0.0 | 0.0 | 0.00 | 0.00 | 0.00 | 20 | 752.8 | |
| 20260901085511 | -17 | 0.0 | 0.0 | 0.00 | 0.00 | 0.00 | 27 | 752.4 | |
| 20260901082510 | -17 | 0.0 | 0.0 | 0.00 | 0.00 | 0.00 | 16 | 752.1 | |
| 20260901081009 | -17 | 0.0 | 0.0 | 0.00 | 0.00 | 0.00 | 18 | 752.0 | |
| 20260901075508 | -17 | 0.0 | 0.0 | 0.00 | 0.00 | 0.00 | 31 | 752.0 | |
| 20260901074011 | -17 | 0.0 | 0.0 | 0.00 | 0.00 | 0.00 | 20 | 752.0 | |
| 20260901072508 | -17 | 0.0 | 0.0 | 0.00 | 0.00 | 0.00 | 20 | 752.1 | |
| 20260901071006 | -17 | 0.0 | 0.0 | 0.00 | 0.00 | 0.00 | 22 | 752.3 |